When you browse on this site, cookies collect data to enhance your experience and personalize the content and advertising you see.
Visit our Privacy Policy to learn more. By continuing to use the site, you agree to this use of cookies and data.
  • In Hungary
  • List of Countries
  • For 7 days
  • Water Temperature
  • Satellite Maps
  • Weather Map
  • News
  • Weather Widgets
  • user-avatar
    Login

    Hourly Weather Borovec

    Today, 26 April, Friday

    Time Temperature Precipitation Wind Pressure Humidity
    00:00 +14°C° 0.1 mm 1 mps 714 mmHg 82%
    01:00 +13°C° 0.1 mm 1 mps 714 mmHg 83%
    02:00 +13°C° 0 mm 1 mps 713 mmHg 86%
    03:00 +13°C° 0.1 mm 1 mps 713 mmHg 85%
    04:00 +13°C° 0.1 mm 1 mps 713 mmHg 85%
    05:00 +12°C° 0.1 mm 1 mps 713 mmHg 85%
    06:00 +14°C° 0.1 mm 1 mps 713 mmHg 79%
    07:00 +16°C° 0.1 mm 1 mps 714 mmHg 73%
    08:00 +19°C° 0.1 mm 1 mps 714 mmHg 67%
    09:00 +19°C° 0 mm 0 mps 714 mmHg 59%
    10:00 +21°C° 0 mm 0 mps 714 mmHg 51%
    11:00 +24°C° 0 mm 0 mps 714 mmHg 43%
    12:00 +25°C° 0.1 mm 0 mps 714 mmHg 40%
    13:00 +25°C° 0.1 mm 0 mps 714 mmHg 38%
    14:00 +28°C° 0.1 mm 1 mps 714 mmHg 36%
    15:00 +27°C° 0.1 mm 1 mps 713 mmHg 37%
    16:00 +27°C° 0.1 mm 1 mps 713 mmHg 38%
    17:00 +26°C° 0.1 mm 1 mps 712 mmHg 39%
    18:00 +24°C° 0 mm 1 mps 712 mmHg 48%
    19:00 +21°C° 0 mm 1 mps 712 mmHg 56%
    20:00 +18°C° 0 mm 2 mps 711 mmHg 64%
    21:00 +17°C° 0 mm 2 mps 711 mmHg 67%
    22:00 +17°C° 0 mm 2 mps 711 mmHg 69%
    23:00 +16°C° 0 mm 2 mps 711 mmHg 71%

    Tomorrow, 27 April, Saturday

    Time Temperature Precipitation Wind Pressure Humidity
    00:00 +15°C° 0 mm 1 mps 711 mmHg 73%
    01:00 +15°C° 0 mm 1 mps 711 mmHg 74%
    02:00 +14°C° 0 mm 1 mps 711 mmHg 75%
    03:00 +14°C° 0 mm 1 mps 710 mmHg 77%
    04:00 +14°C° 0 mm 1 mps 710 mmHg 79%
    05:00 +13°C° 0 mm 1 mps 710 mmHg 81%
    06:00 +15°C° 0 mm 1 mps 710 mmHg 76%
    07:00 +16°C° 0 mm 1 mps 710 mmHg 71%
    08:00 +19°C° 0 mm 1 mps 710 mmHg 66%
    09:00 +21°C° 0 mm 1 mps 710 mmHg 58%
    10:00 +23°C° 0 mm 1 mps 710 mmHg 50%
    11:00 +25°C° 0 mm 1 mps 710 mmHg 42%
    12:00 +26°C° 0 mm 1 mps 709 mmHg 40%
    13:00 +26°C° 0 mm 2 mps 709 mmHg 38%
    14:00 +27°C° 0 mm 2 mps 709 mmHg 35%
    15:00 +26°C° 0.1 mm 2 mps 708 mmHg 39%
    16:00 +25°C° 0.1 mm 2 mps 708 mmHg 42%
    17:00 +24°C° 0.1 mm 2 mps 707 mmHg 46%
    18:00 +21°C° 0.8 mm 2 mps 707 mmHg 56%
    19:00 +18°C° 0.8 mm 3 mps 707 mmHg 67%
    20:00 +15°C° 0.8 mm 4 mps 707 mmHg 78%
    21:00 +14°C° 0.5 mm 3 mps 707 mmHg 80%
    22:00 +15°C° 0.5 mm 2 mps 707 mmHg 83%
    23:00 +14°C° 0.5 mm 2 mps 707 mmHg 85%

    Day after tomorrow, 28 April, Sunday

    Time Temperature Precipitation Wind Pressure Humidity
    00:00 +13°C° 0 mm 2 mps 708 mmHg 86%
    01:00 +13°C° 0 mm 2 mps 708 mmHg 86%
    02:00 +12°C° 0 mm 2 mps 708 mmHg 87%
    03:00 +12°C° 0 mm 2 mps 708 mmHg 88%
    04:00 +10°C° 0 mm 2 mps 708 mmHg 90%
    05:00 +9°C° 0 mm 2 mps 708 mmHg 92%
    06:00 +10°C° 0 mm 2 mps 708 mmHg 85%
    07:00 +12°C° 0 mm 2 mps 708 mmHg 79%
    08:00 +12°C° 0 mm 3 mps 708 mmHg 72%
    09:00 +13°C° 0 mm 3 mps 709 mmHg 65%
    10:00 +15°C° 0 mm 4 mps 709 mmHg 58%
    11:00 +17°C° 0 mm 4 mps 709 mmHg 51%
    12:00 +17°C° 0 mm 4 mps 709 mmHg 48%
    13:00 +18°C° 0 mm 4 mps 708 mmHg 46%
    14:00 +18°C° 0 mm 4 mps 708 mmHg 44%
    15:00 +18°C° 0 mm 4 mps 708 mmHg 46%
    16:00 +17°C° 0 mm 4 mps 708 mmHg 48%
    17:00 +16°C° 0 mm 5 mps 707 mmHg 49%
    18:00 +14°C° 0 mm 4 mps 707 mmHg 57%
    19:00 +12°C° 0 mm 3 mps 707 mmHg 64%
    20:00 +10°C° 0 mm 2 mps 708 mmHg 71%
    21:00 +10°C° 0 mm 2 mps 708 mmHg 75%
    22:00 +9°C° 0 mm 2 mps 708 mmHg 78%
    23:00 +9°C° 0 mm 2 mps 708 mmHg 82%

    29 April, Monday

    Time Temperature Precipitation Wind Pressure Humidity
    00:00 +8°C° 0 mm 2 mps 708 mmHg 83%
    01:00 +9°C° 0 mm 1 mps 708 mmHg 85%
    02:00 +9°C° 0 mm 1 mps 708 mmHg 87%
    03:00 +9°C° 0 mm 1 mps 708 mmHg 88%
    04:00 +8°C° 0 mm 1 mps 708 mmHg 89%
    05:00 +8°C° 0 mm 1 mps 708 mmHg 91%
    06:00 +9°C° 0 mm 1 mps 708 mmHg 83%
    07:00 +11°C° 0 mm 1 mps 708 mmHg 75%
    08:00 +12°C° 0 mm 1 mps 708 mmHg 68%
    09:00 +14°C° 0 mm 2 mps 708 mmHg 61%
    10:00 +15°C° 0 mm 2 mps 708 mmHg 55%
    11:00 +17°C° 0 mm 2 mps 708 mmHg 48%
    12:00 +17°C° 0.1 mm 3 mps 708 mmHg 47%
    13:00 +18°C° 0.1 mm 3 mps 708 mmHg 46%
    14:00 +18°C° 0.1 mm 3 mps 707 mmHg 46%
    15:00 +18°C° 0.3 mm 3 mps 707 mmHg 49%
    16:00 +17°C° 0.3 mm 3 mps 707 mmHg 52%
    17:00 +17°C° 0.3 mm 3 mps 706 mmHg 55%
    18:00 +14°C° 0.1 mm 3 mps 706 mmHg 60%
    19:00 +14°C° 0.1 mm 2 mps 706 mmHg 66%
    20:00 +12°C° 0.1 mm 1 mps 706 mmHg 72%
    21:00 +11°C° 0 mm 1 mps 707 mmHg 74%
    22:00 +11°C° 0 mm 1 mps 707 mmHg 77%
    23:00 +10°C° 0 mm 1 mps 707 mmHg 79%

    30 April, Tuesday

    Time Temperature Precipitation Wind Pressure Humidity
    00:00 +10°C° 0 mm 1 mps 707 mmHg 82%
    01:00 +9°C° 0 mm 1 mps 707 mmHg 84%
    02:00 +9°C° 0 mm 1 mps 707 mmHg 86%
    03:00 +9°C° 0 mm 1 mps 706 mmHg 86%
    04:00 +8°C° 0 mm 1 mps 706 mmHg 87%
    05:00 +8°C° 0 mm 1 mps 706 mmHg 87%
    06:00 +9°C° 0 mm 1 mps 706 mmHg 81%
    07:00 +11°C° 0 mm 1 mps 707 mmHg 74%
    08:00 +12°C° 0 mm 1 mps 707 mmHg 67%
    09:00 +14°C° 0 mm 1 mps 707 mmHg 59%
    10:00 +16°C° 0 mm 2 mps 707 mmHg 51%
    11:00 +17°C° 0 mm 2 mps 707 mmHg 44%
    12:00 +18°C° 0 mm 2 mps 706 mmHg 42%
    13:00 +19°C° 0 mm 2 mps 706 mmHg 39%
    14:00 +20°C° 0 mm 2 mps 705 mmHg 37%
    15:00 +19°C° 0.1 mm 2 mps 705 mmHg 41%
    16:00 +19°C° 0.1 mm 2 mps 705 mmHg 46%
    17:00 +18°C° 0.1 mm 2 mps 704 mmHg 50%
    18:00 +16°C° 1.2 mm 2 mps 704 mmHg 63%
    19:00 +14°C° 1.2 mm 2 mps 704 mmHg 76%
    20:00 +12°C° 1.2 mm 1 mps 704 mmHg 90%
    21:00 +11°C° 0.8 mm 1 mps 704 mmHg 90%
    22:00 +11°C° 0.8 mm 1 mps 704 mmHg 91%
    23:00 +11°C° 0.8 mm 1 mps 705 mmHg 92%

    1 May, Wednesday

    Time Temperature Precipitation Wind Pressure Humidity
    00:00 +11°C° 0.3 mm 1 mps 704 mmHg 92%
    01:00 +10°C° 0.3 mm 1 mps 704 mmHg 92%
    02:00 +9°C° 0.3 mm 2 mps 704 mmHg 92%
    03:00 +9°C° 0.3 mm 2 mps 704 mmHg 92%
    04:00 +8°C° 0.3 mm 2 mps 704 mmHg 92%
    05:00 +8°C° 0.3 mm 2 mps 704 mmHg 92%
    06:00 +9°C° 0 mm 2 mps 704 mmHg 87%
    07:00 +9°C° 0 mm 2 mps 705 mmHg 82%
    08:00 +10°C° 0 mm 2 mps 705 mmHg 77%
    09:00 +11°C° 0 mm 3 mps 705 mmHg 71%
    10:00 +12°C° 0 mm 3 mps 705 mmHg 65%
    11:00 +13°C° 0 mm 4 mps 705 mmHg 59%
    12:00 +14°C° 0.1 mm 4 mps 705 mmHg 55%
    13:00 +15°C° 0.1 mm 4 mps 705 mmHg 52%
    14:00 +17°C° 0.1 mm 4 mps 705 mmHg 49%
    15:00 +15°C° 0.1 mm 4 mps 704 mmHg 52%
    16:00 +15°C° 0.1 mm 4 mps 704 mmHg 54%
    17:00 +14°C° 0.1 mm 4 mps 704 mmHg 57%
    18:00 +13°C° 0 mm 3 mps 704 mmHg 62%
    19:00 +12°C° 0 mm 2 mps 704 mmHg 68%
    20:00 +9°C° 0 mm 2 mps 704 mmHg 73%
    21:00 +10°C° 0 mm 1 mps 704 mmHg 76%
    22:00 +9°C° 0 mm 1 mps 705 mmHg 78%
    23:00 +9°C° 0 mm 1 mps 705 mmHg 81%
    Show more